sat.trackr.live / text

‹ back to catalog

ONEWEB-0562

NORAD 55799 · 2023-029D

PAYLOAD ACTIVE UNKNOWN

§ Identity

Operator
Country
UK
Launch date
2023-03-09
Launch site
AFETR
Launch vehicle
Mass (kg)
RCS (m²)

Purposes: comms

External: N2YO · Heavens-Above · Gunter

§ Orbital elements

Epoch: 2026-09-20T05:19:36.384096Z

Period
109.03 min
Inclination
87.9142°
Eccentricity
0.0002759
Mean motion
13.20772262 rev/d
Perigee alt
1,179.7 km
Apogee alt
1,183.9 km
Semi-major
7,559.9 km
B*
5.1299e-5
RAAN
255.4879°
Arg perigee
97.0394°
Mean anomaly
263.1053°
Rev number
17,369

§ Raw data

ONEWEB-05621 55799U 23029D   26263.22194889  .00000034  00000+0  51299-4 0  99992 55799  87.9142 255.4879 0002759  97.0394 263.1053 13.20772262173691

JSON: /api/v1/satellites/55799 · /tle

For live sub-satellite position, see the globe view (requires WebGL).

§ Visibility from observer

Set your observer location to see the next 7 days of passes ≥ 10°. The values pass through the URL so the page stays shareable.

No JS? Fill the form by hand. The geolocation button needs JavaScript.